Location: Ostrava
(49.8330°N, 18.2830°E)
Time: 04:40:44
(UTC+02:00)

Tiros 2 - Visible Passes

Search period start: 24 April 2014 00:00
Search period end: 04 May 2014 00:00
Orbit: 283 x 288 km, 48.5° (Epoch: 23 April)

Date Brightness Start Highest point End Pass type
(mag) Time Alt. Az. Time Alt. Az. Time Alt. Az.
24 Apr 7.0 21:47:00 10° W 21:48:46 25° SW 21:48:46 25° SW visible
25 Apr 7.6 21:49:36 10° WSW 21:50:57 17° SW 21:50:57 17° SW visible
26 Apr 8.2 21:51:56 10° WSW 21:52:31 12° SW 21:52:31 12° SW visible
